Weather History for San Antonio Stinson, TX

Change the Weather History Date:

Saturday, February 2, 2013

  Actual Average Record
Temperature  
Mean Temperature 60 °F -  
Max Temperature 75 °F 61 °F 84 °F (2006)
Min Temperature 44 °F 43 °F 21 °F (2011)
Degree Days  
Heating Degree Days 6    
Growing Degree Days 10 (Base 50)    
Moisture  
Dew Point 48 °F    
Average Humidity 66    
Maximum Humidity 90    
Minimum Humidity 40    
Precipitation  
Precipitation 0.00 in - - ()
Sea Level Pressure  
Sea Level Pressure 30.21 in    
Wind  
Wind Speed 1 mph (SE)    
Max Wind Speed 10 mph    
Max Gust Speed -    
Visibility 10 miles    
Events      
Averages and records for this station are not official NWS values.
T = Trace of Precipitation, MM = Missing Value Source: NWS Daily Summary

Daily Weather History Graph

Daily Weather History Graph

Search for Another Location

Airport:

Trip Planner

Search our weather history database for the weather conditions in past years. The results will help you decide how hot, cold, wet, or windy it might be!

Date:

Astronomy

Feb. 02, 2013 Rise Set
Actual Time 7:22 AM CST 6:13 PM CST
Civil Twilight 6:57 AM CST 6:38 PM CST
Nautical Twilight 6:29 AM CST 7:06 PM CST
Astronomical Twilight 6:01 AM CST 7:34 PM CST
Moon No Moon Rise 11:09 AM CST (2/2)
Length of Visible Light 11h 40m
Length of Day
10h 50m
Waning Gibbous, 59% of the Moon is Illuminated
Feb 2
Waning Gibbous
Feb 3
Last Quarter
Feb 10
New
Feb 17
First Quarter
Feb 25
Full

Hourly Weather History & Observations

Time (CST) Temp. Dew Point Humidity Pressure Visibility Wind Dir Wind Speed Gust Speed Precip Events Conditions
12:53 AM 48.9 °F 42.1 °F 77% 30.21 in 10.0 mi Calm Calm - N/A   Clear
1:53 AM 46.0 °F 41.0 °F 83% 30.19 in 10.0 mi Calm Calm - N/A   Clear
3:53 AM 45.0 °F 41.0 °F 86% 30.18 in 10.0 mi Calm Calm - N/A   Clear
4:53 AM 45.0 °F 42.1 °F 90% 30.18 in 10.0 mi Calm Calm - N/A   Clear
6:53 AM 44.1 °F 41.0 °F 89% 30.22 in 10.0 mi Calm Calm - N/A   Mostly Cloudy
7:53 AM 46.9 °F 44.1 °F 90% 30.23 in 10.0 mi Calm Calm - N/A   Mostly Cloudy
8:53 AM 53.1 °F 46.9 °F 80% 30.24 in 10.0 mi Calm Calm - N/A   Scattered Clouds
9:53 AM 61.0 °F 50.0 °F 67% 30.25 in 10.0 mi Calm Calm - N/A   Scattered Clouds
10:53 AM 64.9 °F 53.1 °F 65% 30.24 in 10.0 mi SSW 8.1 mph - N/A   Clear
11:53 AM 70.0 °F 55.0 °F 59% 30.24 in 10.0 mi SSW 8.1 mph - N/A   Partly Cloudy
12:53 PM 70.0 °F 54.0 °F 57% 30.21 in 10.0 mi Variable 3.5 mph - N/A   Scattered Clouds
1:53 PM 73.0 °F 53.1 °F 49% 30.18 in 10.0 mi SSW 4.6 mph - N/A   Overcast
2:53 PM 72.0 °F 51.1 °F 48% 30.17 in 10.0 mi Variable 4.6 mph - N/A   Mostly Cloudy
3:53 PM 75.0 °F 50.0 °F 41% 30.15 in 10.0 mi Calm Calm - N/A   Partly Cloudy
4:53 PM 75.0 °F 48.9 °F 40% 30.16 in 10.0 mi NNE 4.6 mph - N/A   Clear
5:53 PM 72.0 °F 48.9 °F 44% 30.17 in 10.0 mi Calm Calm - N/A   Clear
6:53 PM 64.9 °F 48.9 °F 56% 30.20 in 10.0 mi Calm Calm - N/A   Clear
7:53 PM 62.1 °F 48.9 °F 62% 30.22 in 10.0 mi Calm Calm - N/A   Clear
8:53 PM 59.0 °F 48.9 °F 69% 30.23 in 10.0 mi Calm Calm - N/A   Clear
9:53 PM 57.0 °F 48.9 °F 74% 30.24 in 10.0 mi Calm Calm - N/A   Clear
10:53 PM 62.1 °F 48.9 °F 62% 30.25 in 10.0 mi NE 10.4 mph - N/A   Clear
11:53 PM 60.1 °F 48.0 °F 64% 30.26 in 10.0 mi ENE 4.6 mph - N/A   Clear